Weather History for Philip, SD

Change the Weather History Date:

Saturday, September 14, 2013

  Actual Average Record
Temperature  
Mean Temperature 75 °F 63 °F  
Max Temperature 87 °F 78 °F 103 °F (1948)
Min Temperature 63 °F 48 °F 26 °F (1993)
Degree Days  
Heating Degree Days 0 5  
Month to date heating degree days 0 44  
Since 1 July heating degree days 3 69  
Cooling Degree Days 10 3  
Month to date cooling degree days 137 57  
Year to date cooling degree days 900 792  
Growing Degree Days 23 (Base 50)    
Moisture  
Dew Point 57 °F    
Average Humidity 61    
Maximum Humidity 84    
Minimum Humidity 37    
Precipitation  
Precipitation 0.00 in 0.06 in 0.39 in (1982)
Month to date precipitation 0.38 0.72  
Year to date precipitation 10.79 14.10  
Sea Level Pressure  
Sea Level Pressure 29.80 in    
Wind  
Wind Speed 11 mph (North)    
Max Wind Speed 26 mph    
Max Gust Speed 33 mph    
Visibility 10 miles    
Events      
T = Trace of Precipitation, MM = Missing Value Source: NWS Daily Summary

Daily Weather History Graph

Daily Weather History Graph

Search for Another Location

Airport:

Trip Planner

Search our weather history database for the weather conditions in past years. The results will help you decide how hot, cold, wet, or windy it might be!

Date:

Astronomy

Sep. 14, 2013 Rise Set
Actual Time 6:24 AM MDT 6:58 PM MDT
Civil Twilight 5:55 AM MDT 7:27 PM MDT
Nautical Twilight 5:21 AM MDT 8:01 PM MDT
Astronomical Twilight 4:45 AM MDT 8:36 PM MDT
Moon 3:48 PM MDT (9/14) 12:50 AM MDT (9/14)
Length of Visible Light 13h 31m
Length of Day
12h 33m
Waxing Gibbous, 73% of the Moon is Illuminated
Sep 14
Waxing Gibbous
Sep 19
Full
Sep 26
Last Quarter
Oct 4
New
Oct 11
First Quarter

Hourly Weather History & Observations

Time (MDT) Temp. Heat Index Dew Point Humidity Pressure Visibility Wind Dir Wind Speed Gust Speed Precip Events Conditions
12:55 AM 66.0 °F - 54.0 °F 65% 29.85 in 10.0 mi South 8.1 mph - N/A   Overcast
1:55 AM 64.9 °F - 54.0 °F 68% 29.83 in 10.0 mi South 9.2 mph - N/A   Overcast
2:55 AM 64.9 °F - 54.0 °F 68% 29.80 in 10.0 mi SSE 6.9 mph - N/A   Overcast
3:09 AM 64.4 °F - 53.6 °F 68% 29.84 in 10.0 mi Variable 3.5 mph - N/A   Overcast
3:55 AM 64.9 °F - 55.0 °F 70% 29.78 in 10.0 mi South 8.1 mph - N/A   Overcast
4:11 AM 64.4 °F - 55.4 °F 73% 29.83 in 10.0 mi SE 4.6 mph - N/A   Overcast
4:55 AM 63.0 °F - 55.0 °F 75% 29.77 in 10.0 mi SE 6.9 mph - N/A   Mostly Cloudy
5:08 AM 62.6 °F - 55.4 °F 77% 29.82 in 10.0 mi SE 6.9 mph - N/A   Scattered Clouds
5:55 AM 63.0 °F - 55.0 °F 75% 29.76 in 10.0 mi ESE 3.5 mph - N/A   Scattered Clouds
6:55 AM 63.0 °F - 55.0 °F 75% 29.75 in 10.0 mi SSE 6.9 mph - N/A   Partly Cloudy
7:55 AM 64.9 °F - 55.9 °F 73% 29.75 in 10.0 mi South 4.6 mph - N/A   Clear
8:55 AM 70.0 °F - 59.0 °F 68% 29.73 in 10.0 mi SW 6.9 mph - N/A   Clear
9:55 AM 78.1 °F - 59.0 °F 52% 29.72 in 10.0 mi SW 11.5 mph - N/A   Clear
10:55 AM 80.1 °F 80.7 °F 59.0 °F 48% 29.71 in 10.0 mi West 9.2 mph - N/A   Partly Cloudy
11:55 AM 81.0 °F 81.1 °F 57.9 °F 45% 29.70 in 10.0 mi NNW 8.1 mph - N/A   Mostly Cloudy
12:55 PM 82.0 °F 81.7 °F 57.0 °F 42% 29.70 in 10.0 mi NW 8.1 mph - N/A   Scattered Clouds
1:55 PM 84.0 °F 83.0 °F 55.9 °F 38% 29.70 in 10.0 mi WNW 8.1 mph - N/A   Scattered Clouds
2:55 PM 84.9 °F 83.9 °F 57.0 °F 38% 29.70 in 10.0 mi NNW 16.1 mph 23.0 mph N/A   Mostly Cloudy
3:55 PM 84.0 °F 83.8 °F 59.0 °F 43% 29.70 in 10.0 mi NNW 19.6 mph 26.5 mph N/A   Partly Cloudy
4:55 PM 81.0 °F 81.6 °F 60.1 °F 49% 29.73 in 10.0 mi NNW 16.1 mph - N/A   Partly Cloudy
5:55 PM 73.9 °F - 60.1 °F 62% 29.78 in 10.0 mi North 24.2 mph 31.1 mph N/A   Mostly Cloudy
6:55 PM 68.0 °F - 59.0 °F 73% 29.82 in 10.0 mi North 16.1 mph 27.6 mph N/A   Overcast
7:19 PM 66.2 °F - 59.0 °F 78% 29.87 in 10.0 mi North 17.3 mph 26.5 mph N/A   Overcast
7:55 PM 66.9 °F - 59.0 °F 76% 29.86 in 10.0 mi NNE 17.3 mph 27.6 mph N/A   Overcast
8:55 PM 66.0 °F - 57.9 °F 75% 29.89 in 10.0 mi North 11.5 mph 20.7 mph N/A   Overcast
9:43 PM 64.4 °F - 57.2 °F 77% 29.96 in 10.0 mi NNE 10.4 mph - N/A   Mostly Cloudy
9:55 PM 64.0 °F - 57.9 °F 80% 29.91 in 10.0 mi NNE 13.8 mph - N/A   Overcast
10:55 PM 64.0 °F - 57.9 °F 80% 29.93 in 10.0 mi NNE 11.5 mph - N/A   Overcast
11:55 PM 63.0 °F - 57.0 °F 81% 29.96 in 10.0 mi NNE 10.4 mph - N/A   Overcast